Flag for Kazakhstan Weather past 2 weeks in Aqtobe, Kazakhstan

Now
88 °F

Passing clouds.


Feels Like: 84 °F
Forecast: 63 / 87 °F
Wind: 17 mph from West

Location: Aktjubinsk

Current Time: Aug 23, 2014 at 5:22:05 PM

Latest Report: Aug 23, 2014 at 4:30 PM


Visibility: N/A

Pressure: 29.83 "Hg

Humidity: 21%

Dew point: 43 °F

Location of AqtobeLocation

Historic Weather in Aqtobe — Graph

°F

Aqtobe temperature yesterday

Maximum temperature yesterday: 99 °F (at 4:00 PM)
Minimum temperature yesterday: 61 °F (at 5:30 AM)
Average temperature yesterday: 80 °F

Past Weeks' High & Low Weather Summary

 TemperatureHumidityPressure
High104 °F (Aug 21, 4:30 PM)83% (Aug 13, 7:00 AM)30.07 "Hg (Aug 13, 7:00 AM)
Low50 °F (Aug 14, 5:00 AM)7% (Aug 20, 2:30 PM)29.68 "Hg (Aug 10, 2:00 PM)
Average78 °F33%29.87 "Hg
* Reported Aug 8 4:00 PM — Aug 23 4:00 PM, Aqtobe, Weather by CustomWeather, © 2014

Note: Actual official high and low records may vary slightly from our data, if they occured in-between our weather recording intervals... More about our weather records

Advertising

Aqtobe weather history for previous 24 hours

 ConditionsComfort  
Time TempWeatherWind HumidityBarometerVisibility
4:00 PM
Aug 23
88 °FSunny.17 mph21%29.83 "Hg10 mi
3:30 PM88 °FSunny.17 mph21%29.83 "Hg10 mi
3:00 PM88 °FSunny.17 mph22%29.83 "Hg10 mi
2:30 PM88 °FSunny.20 mph22%29.86 "Hg10 mi
2:00 PM86 °FSunny.17 mph25%29.86 "Hg10 mi
1:30 PM84 °FSunny.17 mph29%29.86 "Hg10 mi
1:00 PM86 °FSunny.20 mph27%29.86 "Hg10 mi
12:30 PM86 °FPassing clouds.15 mph27%29.86 "HgN/A
12:00 PM82 °FSunny.17 mph30%29.86 "Hg10 mi
11:30 AM82 °FSunny.20 mph30%29.86 "Hg10 mi
11:00 AM82 °FSunny.15 mph35%29.86 "Hg10 mi
10:30 AM81 °FSunny.13 mph39%29.86 "Hg10 mi
10:00 AM79 °FPassing clouds.15 mph45%29.86 "HgN/A
9:30 AM77 °FSunny.13 mph51%29.86 "Hg10 mi
9:00 AM75 °FSunny.8 mph54%29.86 "Hg10 mi
8:30 AM73 °FSunny.8 mph57%29.86 "Hg10 mi
7:30 AM68 °FSunny.3 mph60%29.86 "Hg10 mi
7:00 AM66 °FSunny.6 mph64%29.86 "Hg10 mi
6:30 AM64 °FSunny.6 mph64%29.83 "Hg10 mi
5:30 AM66 °FClear.6 mph60%29.83 "Hg10 mi
5:00 AM68 °FClear.3 mph56%29.83 "Hg10 mi
4:30 AM66 °FClear.8 mph56%29.83 "Hg10 mi
4:00 AM68 °FClear.6 mph49%29.83 "Hg10 mi
3:30 AM70 °FClear.6 mph46%29.83 "Hg10 mi
3:00 AM70 °FClear.1 mph46%29.83 "Hg10 mi
2:30 AM72 °FClear.6 mph44%29.83 "Hg10 mi
2:00 AM72 °FClear.8 mph44%29.83 "Hg10 mi
1:30 AM75 °FClear.8 mph39%29.83 "Hg10 mi
1:00 AM77 °FClear.8 mph36%29.83 "Hg10 mi
12:30 AM77 °FClear.10 mph34%29.83 "Hg10 mi
12:00 AM79 °FClear.13 mph32%29.83 "Hg10 mi
11:30 PM
Aug 22
79 °FClear.13 mph32%29.83 "Hg10 mi
11:00 PM81 °FClear.13 mph30%29.83 "Hg10 mi
10:30 PM82 °FClear.15 mph28%29.80 "Hg10 mi
10:00 PM84 °FClear.15 mph27%29.80 "Hg10 mi
9:30 PM84 °FClear.13 mph27%29.80 "Hg10 mi
9:00 PM86 °FClear.10 mph24%29.77 "Hg6 mi
8:30 PM84 °FClear.1 mph27%29.77 "HgN/A
8:00 PM91 °FSunny.3 mph20%29.77 "Hg10 mi
7:30 PM93 °FSunny.6 mph19%29.77 "Hg10 mi
7:00 PM93 °FPassing clouds.3 mph17%29.77 "HgN/A
6:30 PM95 °FSunny.8 mph16%29.77 "Hg10 mi
6:00 PM95 °FSunny.6 mph16%29.77 "Hg10 mi
5:30 PM95 °FSunny.6 mph16%29.77 "Hg10 mi
5:00 PM95 °FSunny.6 mph14%29.77 "Hg10 mi
Weather by CustomWeather, © 2014

See weather overviewHow to use our weather pages